Tracking 26951 objects as of 3-Feb-2023
HD Live streaming from Space Station
objects crossing your sky now

COSMOS 1464

Track COSMOS 1464 now!
10-day predictions
COSMOS 1464 is classified as:


NORAD ID: 14084
Int'l Code: 1983-048A
Perigee: 969.1 km
Apogee: 1,012.0 km
Inclination: 82.9 °
Period: 104.8 minutes
Semi major axis: 7361 km
RCS: 3.4425 m2 (large)
Launch date: May 24, 1983
Source: Commonwealth of Independent States (former USSR) (CIS)
Launch site: PLESETSK MISSILE AND SPACE COMPLEX (PKMTR)
Your satellite tracking list
Your tracking list is empty




NASA's NSSDC Master Catalog

Two Line Element Set (TLE):
1 14084U 83048A   23034.06892682  .00000068  00000-0  55602-4 0  9999
2 14084  82.9442  35.5906 0029118 217.0187 203.5480 13.74515006991152
Source of the keplerian elements: AFSPC